Location: Brookview Estates
(36.0476°N, 86.6931°W)
Time: 19:04:53
(UTC+00:00)

USA 238 - Pass Details

Date: 30 March 2020
Orbit: 1014 x 1198 km, 63.4° (Epoch: 02 June)

Event Time Altitude Azimuth Distance (km) Brightness Sun altitude
Exits shadow 10:34:43 13° 230° (SW) 2,564 5.2 -12.9°
Maximum altitude 10:40:29 56° 306° (NW) 1,220 3.8 -11.7°
Drops below altitude 10° 10:47:11 10° 24° (NNE) 2,902 6.5 -10.4°
Sets 10:49:58 0° 29° (NNE) 3,888 7.3 -9.9°
